Wind_Speed
34 33 33 33 33 33 33 33 33 33 33 33 33 33 32 32 31 32 32 32 32 32 33 32 32 32 32 32 31 31 31 31 31 31 31 31 31 31 31 31 30 30 29
35 35 35 35 34 34 34 35 35 35 35 36 35 35 35 34 34 34 34 33 34 34 34 34 34 34 34 34 34 33 33 33 33 34 33 33 33 33 33 32 32 31 31
35 36 36 36 36 36 36 36 37 37 37 37 38 38 37 37 37 37 36 36 36 36 36 36 36 37 36 36 37 36 36 35 35 35 35 35 35 35 34 34 34 34 33
37 37 37 37 37 38 38 39 39 39 38 39 39 39 39 39 39 39 39 39 39 38 39 39 38 39 38 38 38 38 38 37 37 37 37 37 37 37 36 37 36 36 36
38 39 39 39 39 39 39 40 40 40 40 40 40 41 41 40 41 41 41 41 41 40 40 40 40 41 41 40 40 40 40 40 39 39 38 38 38 38 38 38 38 37 37
41 40 41 41 41 41 41 41 42 42 42 42 42 42 42 42 42 42 42 42 42 43 43 42 42 42 42 42 42 42 42 42 42 42 41 40 39 40 40 40 39 39 38
43 44 43 43 43 43 44 43 44 44 44 43 44 44 44 43 43 43 44 44 43 44 44 44 44 43 43 43 43 43 43 43 43 44 43 43 43 42 42 42 41 41 40
46 46 46 46 46 46 46 45 45 45 45 45 45 45 45 45 44 44 45 45 45 45 46 45 45 44 44 44 44 44 44 44 45 46 45 45 45 44 43 43 42 42 43
47 47 48 48 48 48 47 46 47 47 47 47 46 46 45 45 45 45 45 45 46 46 47 47 46 46 46 45 45 45 45 45 45 46 47 47 47 46 45 44 44 43 43
49 49 49 48 48 49 49 48 48 48 48 48 47 47 47 47 46 46 46 46 46 47 47 47 47 47 47 46 46 46 46 47 47 47 47 48 48 47 46 46 46 45 45
52 52 52 51 50 50 50 49 50 50 49 49 49 49 49 49 48 48 47 47 48 48 48 49 49 49 49 48 48 48 48 48 48 49 48 48 49 49 48 48 48 47 47
53 54 54 54 53 53 52 51 51 51 52 52 51 50 50 50 49 49 49 49 49 49 50 50 51 51 50 50 50 50 50 49 49 50 50 49 49 50 50 50 49 49 49
55 55 55 55 55 56 55 54 54 53 53 53 53 52 52 51 51 51 50 50 50 50 50 50 51 51 51 51 51 51 52 52 52 51 51 51 50 50 51 51 51 50 50
56 56 56 56 56 56 57 57 56 56 55 54 54 53 53 53 53 53 53 52 52 52 52 51 52 52 53 53 53 53 53 53 54 53 52 52 52 52 52 52 51 51 51
56 56 57 57 57 57 58 58 58 57 56 55 55 54 54 53 53 54 55 55 55 55 54 54 54 53 53 54 54 55 55 54 55 55 54 53 53 53 53 53 52 52 52
56 56 57 57 58 58 58 58 58 58 58 57 57 57 56 56 55 55 56 57 57 56 56 55 56 55 55 55 56 56 56 55 55 55 55 55 54 54 54 54 53 53 53
56 56 57 57 58 58 59 59 59 59 59 59 59 59 59 58 58 57 57 58 58 58 57 56 56 57 57 56 57 56 56 56 55 55 55 55 55 55 55 55 55 55 55
57 57 57 58 59 59 58 59 59 59 59 60 60 60 60 59 59 59 59 59 58 58 58 57 57 57 58 59 59 58 57 57 57 56 56 56 57 57 56 56 56 56 56
57 58 58 59 59 59 59 59 60 60 60 60 60 60 59 59 59 59 60 61 60 59 60 59 58 58 59 59 59 59 59 58 57 56 56 57 56 57 57 57 56 56 57
58 58 58 59 59 59 59 59 59 59 60 60 60 61 60 60 60 60 60 61 61 61 62 61 60 60 59 59 60 60 59 59 58 58 57 58 57 57 57 57 57 57 57
59 59 60 60 59 59 59 58 58 58 59 59 59 60 60 61 61 61 61 61 60 61 61 61 60 60 59 59 59 59 60 59 59 59 59 59 58 57 57 57 57 57 57
58 58 59 59 59 60 59 58 58 58 58 58 58 59 59 60 60 61 61 60 60 59 59 60 59 59 59 59 59 59 59 59 59 59 59 59 59 58 58 58 58 58 59
56 56 57 57 58 58 59 59 59 58 58 58 58 58 59 59 59 59 59 59 59 59 59 59 59 59 59 59 59 59 60 59 59 59 59 59 59 59 59 59 59 60 60
55 55 55 55 56 56 57 57 58 58 59 58 58 58 58 58 57 58 58 58 58 58 59 60 60 60 60 59 59 58 59 58 58 59 59 59 59 59 59 59 60 60 60
54 54 54 54 54 55 56 56 57 57 58 57 57 57 57 57 57 57 57 57 57 58 58 58 58 58 58 58 58 57 57 58 58 58 59 58 58 58 58 58 59 59 59
52 53 53 54 54 54 55 55 56 56 57 57 56 56 56 56 56 56 56 55 55 56 56 57 57 58 57 57 56 57 57 57 57 57 57 58 58 58 58 58 58 59 59
Wind_Direction
259 258 259 259 259 260 260 261 262 264 264 264 263 262 262 261 261 261 261 261 261 262 262 262 262 262 263 264 263 262 263 263 264 264 264 265 266 266 267 266 266 266 266
260 260 260 260 260 261 261 262 262 264 264 264 264 263 263 263 263 263 262 262 262 262 262 262 263 264 264 264 264 263 262 263 264 264 264 264 265 264 264 266 266 266 266
260 261 261 261 261 262 263 263 263 263 264 264 264 264 264 264 264 263 263 262 263 263 263 263 263 263 263 264 264 264 263 263 263 264 264 265 265 264 263 264 264 265 265
260 261 261 262 262 263 263 263 263 263 264 265 265 265 265 265 265 264 264 264 264 263 263 263 263 263 263 263 263 264 263 263 263 264 265 264 264 264 264 264 264 264 264
260 261 262 263 263 263 264 264 263 263 264 264 265 265 266 265 265 264 264 264 264 264 264 264 263 263 262 262 263 262 262 262 262 262 263 263 263 263 263 264 264 264 264
260 262 263 264 265 265 264 264 264 264 264 265 265 265 265 265 265 265 264 264 264 264 264 263 263 263 263 263 263 263 262 262 261 262 262 262 263 264 264 264 265 264 263
261 262 264 266 266 266 265 265 265 265 265 265 265 264 264 265 265 265 265 264 264 265 264 264 264 264 263 263 263 263 263 262 262 262 262 263 263 264 264 265 264 263 263
262 262 263 264 265 266 266 266 265 265 265 265 265 265 265 265 265 265 265 265 265 265 265 265 265 265 264 263 263 263 263 263 263 262 262 263 264 264 264 264 264 264 263
263 264 264 264 264 264 265 266 266 265 265 265 265 265 266 266 266 265 265 265 265 265 265 265 266 266 265 264 264 263 263 263 264 264 263 263 263 263 262 263 263 264 264
263 263 263 264 264 265 265 265 265 266 265 265 265 265 266 266 266 265 265 265 265 266 265 265 266 266 266 265 265 263 264 264 264 264 264 263 262 262 262 262 262 263 263
263 262 263 264 264 264 265 265 265 265 265 265 265 265 266 266 266 266 265 266 266 266 266 266 266 266 266 265 265 264 264 265 264 264 262 262 262 261 262 263 263 262 263
262 262 263 264 264 264 264 264 265 265 266 266 265 265 265 265 266 266 266 266 266 266 266 266 266 266 266 265 264 263 264 264 264 264 262 262 262 262 262 263 263 263 263
261 262 262 263 263 264 264 264 264 264 265 265 265 265 265 264 264 265 265 266 267 267 267 267 267 266 266 264 264 264 264 263 263 263 262 262 262 262 262 263 263 263 263
262 262 262 262 263 263 264 264 265 265 265 264 264 264 265 265 265 265 265 266 267 267 267 267 267 267 266 264 264 264 264 264 263 262 262 262 262 262 262 262 262 262 263
263 262 262 262 263 263 264 264 264 265 265 265 264 263 264 265 266 266 266 266 267 267 266 266 266 266 266 264 265 265 265 264 263 262 262 262 262 262 262 262 262 262 263
263 263 263 263 263 263 263 264 264 264 265 265 265 265 265 266 267 267 268 267 268 268 268 267 266 266 266 265 266 265 265 264 263 262 262 262 262 261 261 261 261 262 262
264 263 264 264 264 264 264 263 263 264 264 264 265 265 266 267 267 267 268 268 268 268 268 267 267 266 266 266 266 265 264 263 262 262 262 262 262 262 261 261 261 262 262
265 264 264 265 265 264 264 263 263 264 264 264 264 265 266 267 268 268 268 268 268 268 268 268 268 267 267 266 266 265 263 262 262 262 262 262 263 262 261 261 261 262 263
266 266 266 265 265 264 264 264 264 264 264 264 264 265 266 266 267 268 268 268 268 268 268 268 268 268 268 267 266 265 263 262 261 261 261 262 262 262 262 261 261 261 262
266 266 266 266 265 265 265 265 265 264 264 264 264 265 266 266 267 267 268 269 269 268 268 268 268 268 267 267 266 264 263 262 261 261 261 262 262 262 262 262 262 261 262
267 266 266 265 265 265 265 265 265 265 264 265 265 265 266 267 267 268 268 268 268 268 268 268 268 267 267 267 266 265 263 263 262 262 261 261 261 262 262 262 262 263 262
267 266 266 266 265 265 265 265 265 265 264 264 265 266 266 268 268 268 268 268 267 267 267 267 267 267 267 267 266 265 263 263 262 262 262 261 261 261 262 262 262 262 262
267 267 266 266 265 265 265 264 265 264 264 265 266 266 267 268 268 268 268 268 267 267 267 267 267 267 267 267 266 264 263 263 263 262 263 262 261 261 261 261 261 262 262
267 267 266 265 265 265 265 265 265 264 264 265 266 267 267 267 267 268 268 268 268 268 267 267 266 266 266 266 265 264 262 262 262 262 262 263 262 262 261 261 261 261 262
267 266 265 265 265 265 266 266 266 265 265 265 266 267 267 267 267 267 268 268 268 267 267 267 267 267 266 266 265 263 262 261 261 261 262 262 262 262 261 261 261 262 263
267 266 265 265 266 266 267 267 266 266 266 266 266 267 267 268 268 268 268 268 267 267 266 266 266 266 265 265 263 262 262 262 262 262 262 262 263 262 262 261 262 262 263
Height
5797 5797 5798 5798 5798 5799 5799 5800 5800 5800 5800 5800 5800 5801 5801 5801 5802 5802 5803 5803 5804 5804 5804 5805 5805 5805 5805 5806 5806 5806 5806 5807 5807 5807 5807 5807 5808 5808 5808 5809 5809 5809 5809
5789 5789 5790 5790 5790 5791 5791 5791 5792 5792 5792 5792 5792 5792 5793 5793 5794 5794 5795 5795 5796 5796 5796 5797 5797 5797 5798 5798 5798 5798 5799 5799 5799 5799 5799 5800 5800 5801 5801 5801 5802 5802 5802
5780 5781 5781 5782 5782 5782 5782 5782 5783 5783 5783 5783 5784 5784 5784 5785 5785 5785 5786 5787 5787 5787 5788 5788 5788 5789 5789 5789 5790 5790 5790 5791 5791 5791 5791 5791 5792 5792 5793 5793 5794 5794 5794
5772 5772 5772 5773 5773 5773 5773 5773 5774 5774 5774 5774 5775 5775 5775 5775 5776 5776 5776 5777 5778 5778 5779 5779 5779 5780 5780 5780 5780 5781 5781 5782 5782 5782 5782 5782 5783 5783 5784 5785 5785 5785 5786
5762 5763 5763 5763 5763 5764 5764 5764 5764 5764 5765 5765 5765 5765 5765 5766 5766 5766 5767 5767 5768 5768 5769 5769 5770 5770 5770 5770 5770 5771 5771 5772 5772 5773 5773 5773 5774 5774 5775 5776 5776 5776 5776
5753 5753 5753 5753 5754 5754 5754 5754 5754 5754 5754 5754 5754 5755 5755 5755 5755 5755 5756 5756 5757 5757 5758 5758 5759 5759 5759 5760 5760 5760 5761 5761 5762 5763 5763 5763 5764 5764 5765 5765 5766 5766 5767
5742 5742 5742 5743 5743 5743 5743 5743 5743 5743 5743 5743 5744 5744 5744 5744 5744 5744 5745 5745 5746 5746 5746 5747 5747 5748 5748 5748 5748 5749 5749 5750 5751 5752 5752 5753 5753 5754 5754 5755 5756 5756 5757
5731 5731 5731 5732 5731 5731 5731 5732 5732 5732 5732 5732 5732 5733 5733 5734 5733 5733 5733 5734 5734 5734 5735 5735 5735 5735 5736 5736 5737 5738 5738 5739 5739 5740 5741 5741 5742 5742 5743 5744 5744 5745 5746
5719 5719 5719 5719 5719 5719 5719 5719 5720 5720 5720 5720 5720 5721 5721 5722 5722 5723 5722 5722 5722 5722 5723 5723 5723 5723 5724 5724 5725 5726 5726 5727 5728 5728 5728 5729 5730 5731 5731 5732 5733 5734 5735
5706 5706 5706 5706 5706 5706 5707 5707 5707 5707 5708 5708 5708 5708 5709 5709 5710 5711 5711 5710 5710 5710 5710 5711 5710 5711 5711 5712 5713 5714 5714 5715 5715 5716 5716 5716 5717 5718 5719 5720 5722 5723 5723
5693 5693 5693 5693 5693 5693 5694 5694 5694 5694 5694 5695 5695 5695 5695 5696 5696 5697 5698 5698 5698 5698 5698 5698 5697 5698 5698 5699 5700 5701 5701 5702 5702 5702 5703 5704 5705 5706 5707 5708 5710 5711 5712
5679 5679 5679 5679 5680 5680 5680 5680 5681 5681 5681 5681 5681 5681 5682 5682 5683 5683 5684 5685 5685 5685 5684 5684 5684 5684 5685 5685 5686 5687 5688 5688 5689 5689 5690 5691 5692 5693 5694 5696 5697 5698 5699
5665 5665 5665 5665 5665 5666 5666 5666 5666 5666 5667 5667 5667 5668 5668 5668 5669 5669 5670 5670 5671 5671 5671 5671 5670 5671 5671 5672 5672 5673 5674 5674 5675 5676 5676 5678 5679 5680 5681 5683 5684 5685 5686
5650 5650 5650 5651 5651 5651 5651 5651 5651 5651 5652 5652 5653 5653 5654 5654 5654 5655 5655 5656 5657 5657 5657 5657 5657 5656 5656 5657 5658 5658 5659 5660 5660 5661 5662 5664 5665 5666 5667 5669 5671 5672 5673
5635 5635 5635 5636 5636 5636 5636 5636 5636 5636 5637 5637 5638 5638 5639 5640 5640 5640 5640 5641 5642 5643 5644 5644 5643 5642 5642 5642 5643 5643 5644 5645 5646 5647 5648 5649 5651 5652 5654 5655 5657 5659 5660
5620 5620 5620 5621 5621 5621 5621 5621 5621 5622 5622 5622 5622 5623 5624 5624 5625 5625 5625 5625 5625 5626 5627 5629 5628 5628 5627 5628 5627 5628 5629 5630 5631 5632 5633 5635 5636 5638 5639 5641 5643 5644 5646
5605 5605 5605 5605 5605 5605 5606 5606 5606 5607 5607 5607 5607 5608 5608 5608 5609 5609 5609 5609 5609 5609 5610 5612 5612 5612 5612 5612 5612 5612 5613 5614 5615 5617 5618 5619 5621 5622 5624 5626 5628 5629 5631
5589 5589 5589 5589 5590 5590 5589 5590 5590 5591 5591 5591 5592 5592 5593 5593 5593 5593 5593 5593 5593 5593 5593 5595 5596 5595 5595 5596 5596 5596 5597 5598 5600 5601 5603 5604 5605 5607 5609 5610 5612 5614 5616
5574 5574 5573 5573 5573 5574 5574 5574 5574 5574 5575 5575 5576 5576 5577 5577 5577 5577 5577 5577 5577 5577 5576 5577 5579 5579 5578 5578 5578 5579 5580 5581 5583 5585 5586 5588 5590 5591 5593 5595 5596 5598 5600
5558 5558 5558 5557 5557 5557 5557 5558 5558 5558 5558 5559 5559 5560 5560 5561 5561 5561 5560 5560 5560 5560 5560 5560 5561 5561 5561 5561 5561 5562 5563 5565 5567 5568 5570 5572 5574 5575 5577 5579 5581 5582 5584
5542 5542 5541 5541 5541 5541 5541 5541 5541 5542 5542 5542 5543 5543 5544 5544 5543 5543 5543 5543 5543 5543 5543 5543 5544 5544 5544 5544 5545 5545 5546 5548 5549 5551 5553 5555 5557 5559 5561 5563 5564 5566 5567
5525 5525 5525 5525 5524 5524 5525 5525 5525 5525 5526 5526 5527 5527 5527 5527 5526 5526 5526 5526 5526 5526 5526 5526 5527 5527 5528 5528 5528 5528 5529 5531 5533 5535 5535 5538 5539 5542 5544 5547 5548 5549 5551
5509 5508 5508 5508 5508 5508 5508 5508 5508 5509 5509 5510 5510 5510 5510 5510 5509 5509 5509 5509 5508 5508 5509 5509 5510 5510 5511 5512 5512 5512 5512 5513 5515 5517 5518 5521 5522 5525 5527 5529 5531 5532 5534
5492 5492 5492 5492 5492 5492 5492 5492 5491 5492 5492 5493 5493 5493 5493 5493 5492 5492 5492 5492 5492 5492 5492 5493 5494 5494 5494 5494 5494 5495 5495 5497 5498 5499 5500 5503 5505 5507 5510 5511 5513 5515 5516
5476 5475 5475 5475 5475 5475 5475 5475 5475 5475 5476 5476 5476 5476 5476 5476 5476 5475 5475 5476 5476 5475 5474 5475 5475 5476 5476 5477 5477 5477 5478 5479 5481 5483 5484 5486 5488 5490 5492 5494 5495 5497 5498
5460 5459 5459 5459 5459 5459 5459 5459 5458 5459 5459 5460 5460 5459 5459 5459 5458 5457 5458 5458 5458 5458 5458 5458 5458 5458 5459 5460 5460 5461 5462 5463 5464 5467 5468 5469 5471 5472 5475 5477 5478 5479 5481